,,PA_Meas_PMT16A,,PR_Meas_QMR101_102,,RH_Meas_QMH101,,SR_Meas_QMS101,,TA_Meas_QMH101,,GenWind,,GenWind,
time,status,PA,status,PR,status,RH,status,SR,status,TA,status,DirAvg,status,SpdAvg,
2011-11-14, 00:00:05,VALID,918.995,VALID,0,VALID,96.5201,VALID,0,VALID,20.2473,VALID,257,VALID,0.215234,
2011-11-14, 00:01:05,VALID,919.007,VALID,0,VALID,96.5201,VALID,0,VALID,20.2278,VALID,257,VALID,0.25,
2011-11-14, 00:02:05,VALID,918.993,VALID,0,VALID,96.4743,VALID,0,VALID,20.1888,VALID,257,VALID,0.177344,
2011-11-14, 00:03:05,VALID,919.011,VALID,0,VALID,96.4591,VALID,0,VALID,20.1693,VALID,257,VALID,0.346875,
2011-11-14, 00:04:05,VALID,919.036,VALID,0,VALID,96.4743,VALID,0,VALID,20.1303,VALID,257,VALID,0.582031,
2011-11-14, 00:05:05,VALID,919.032,VALID,0,VALID,96.5353,VALID,0,VALID,20.1318,VALID,257,VALID,0.528125,
2011-11-14, 00:06:05,VALID,919.038,VALID,0,VALID,96.5506,VALID,0,VALID,20.1123,VALID,257,VALID,0.611719,
2011-11-14, 00:07:05,VALID,919.005,VALID,0,VALID,96.5963,VALID,0.107441,VALID,20.0523,VALID,257,VALID,0.648438,
2011-11-14, 00:08:05,VALID,919.031,VALID,0,VALID,96.6192,VALID,0.107441,VALID,20.0523,VALID,257,VALID,0.641016,
2011-11-14, 00:09:05,VALID,919.002,VALID,0,VALID,96.6268,VALID,0,VALID,20.0328,VALID,257,VALID,0.54375,
2011-11-14, 00:10:05,VALID,919.012,VALID,0,VALID,96.642,VALID,0.107441,VALID,20.0133,VALID,257,VALID,0.5375,
2011-11-14, 00:11:05,VALID,919.015,VALID,0,VALID,96.7335,VALID,0.107441,VALID,20.0328,VALID,257,VALID,0.965234,
2011-11-14, 00:12:05,VALID,919.003,VALID,0,VALID,96.7716,VALID,0,VALID,20.0313,VALID,257,VALID,0.705078,
2011-11-14, 00:13:05,VALID,918.994,VALID,0,VALID,96.7564,VALID,0,VALID,20.0523,VALID,257,VALID,0.610937,
2011-11-14, 00:14:05,VALID,918.971,VALID,0,VALID,96.7716,VALID,0,VALID,20.0328,VALID,256,VALID,0.557031,
2011-11-14, 00:15:05,VALID,918.968,VALID,0,VALID,96.7869,VALID,0.107441,VALID,20.0328,VALID,257,VALID,0.640625,
2011-11-14, 00:16:05,VALID,918.973,VALID,0,VALID,96.8098,VALID,0,VALID,20.0328,VALID,257,VALID,0.391016,
2011-11-14, 00:17:05,VALID,918.935,VALID,0,VALID,96.8098,VALID,0,VALID,20.0328,VALID,256,VALID,0.504687,
2011-11-14, 00:18:05,VALID,918.94,VALID,0,VALID,96.825,VALID,0.107441,VALID,20.0523,VALID,257,VALID,0.941797,
2011-11-14, 00:19:05,VALID,918.923,VALID,0,VALID,96.8403,VALID,0.107441,VALID,20.0523,VALID,257,VALID,0.25,
2011-11-14, 00:20:05,VALID,918.921,VALID,0,VALID,96.8631,VALID,0,VALID,20.0718,VALID,257,VALID,0.385547,
2011-11-14, 00:21:05,VALID,918.915,VALID,0,VALID,96.886,VALID,0,VALID,20.0913,VALID,257,VALID,0.489453,
2011-11-14, 00:22:05,VALID,918.888,VALID,0,VALID,96.886,VALID,0,VALID,20.1108,VALID,257,VALID,0.257813,
2011-11-14, 00:23:05,VALID,918.86,VALID,0,VALID,96.9012,VALID,0,VALID,20.1303,VALID,257,VALID,0.542578,
2011-11-14, 00:24:05,VALID,918.86,VALID,0,VALID,96.8936,VALID,0,VALID,20.1303,VALID,257,VALID,0.507422,
2011-11-14, 00:25:05,VALID,918.798,VALID,0,VALID,96.9012,VALID,0,VALID,20.1303,VALID,257,VALID,0.517578,
2011-11-14, 00:26:05,VALID,918.814,VALID,0,VALID,96.9241,VALID,0,VALID,20.1303,VALID,257,VALID,0.329688,
2011-11-14, 00:27:05,VALID,918.791,VALID,0,VALID,96.9165,VALID,0,VALID,20.1303,VALID,256,VALID,0.357031,
2011-11-14, 00:28:05,VALID,918.785,VALID,0,VALID,96.9241,VALID,0,VALID,20.1303,VALID,257,VALID,0.278516,
2011-11-14, 00:29:05,VALID,918.759,VALID,0,VALID,96.9317,VALID,0.107441,VALID,20.1303,VALID,257,VALID,0.235156,
2011-11-14, 00:30:05,VALID,918.778,VALID,0,VALID,96.9622,VALID,0,VALID,20.1303,VALID,257,VALID,0.176563,
2011-11-14, 00:31:05,VALID,918.745,VALID,0,VALID,96.9698,VALID,0.107441,VALID,20.1303,VALID,256,VALID,0.499609,
2011-11-14, 00:32:05,VALID,918.74,VALID,0,VALID,96.9546,VALID,0.107441,VALID,20.1303,VALID,257,VALID,0.358203,
2011-11-14, 00:33:05,VALID,918.742,VALID,0,VALID,96.9622,VALID,0,VALID,20.1303,VALID,257,VALID,0.450391,
2011-11-14, 00:34:05,VALID,918.744,VALID,0,VALID,96.9775,VALID,0.107441,VALID,20.1303,VALID,257,VALID,0.508984,
2011-11-14, 00:35:05,VALID,918.717,VALID,0,VALID,96.9851,VALID,0,VALID,20.1303,VALID,257,VALID,0.426953,
2011-11-14, 00:36:05,VALID,918.729,VALID,0,VALID,96.9775,VALID,0.107441,VALID,20.1108,VALID,257,VALID,0.478516,
2011-11-14, 00:37:05,VALID,918.725,VALID,0,VALID,97.008,VALID,0,VALID,20.1108,VALID,257,VALID,0.562891,
2011-11-14, 00:38:05,VALID,918.711,VALID,0,VALID,97.0003,VALID,0,VALID,20.1108,VALID,257,VALID,0.426953,
2011-11-14, 00:39:05,VALID,918.696,VALID,0,VALID,97.0385,VALID,0,VALID,20.1108,VALID,257,VALID,0.170703,
2011-11-14, 00:40:05,VALID,918.681,VALID,0,VALID,97.0537,VALID,0,VALID,20.1303,VALID,257,VALID,0,
2011-11-14, 00:41:05,VALID,918.659,VALID,0,VALID,97.0613,VALID,0,VALID,20.1303,VALID,257,VALID,0.790625,
2011-11-14, 00:42:05,VALID,918.637,VALID,0,VALID,97.0461,VALID,0,VALID,20.1108,VALID,257,VALID,0.309766,
2011-11-14, 00:43:05,VALID,918.648,VALID,0.2,VALID,97.0385,VALID,0,VALID,20.1303,VALID,257,VALID,0.370703,
2011-11-14, 00:44:05,VALID,918.629,VALID,0,VALID,97.1147,VALID,0,VALID,20.1513,VALID,257,VALID,0.160938,
2011-11-14, 00:45:05,VALID,918.591,VALID,0,VALID,97.1071,VALID,0,VALID,20.1498,VALID,257,VALID,0.416016,
2011-11-14, 00:46:05,VALID,918.598,VALID,0,VALID,97.0994,VALID,0,VALID,20.1303,VALID,257,VALID,0.0980469,
2011-11-14, 00:47:05,VALID,918.561,VALID,0,VALID,97.0842,VALID,0,VALID,20.1303,VALID,257,VALID,0.730078,
2011-11-14, 00:48:05,VALID,918.561,VALID,0,VALID,97.1223,VALID,0,VALID,20.1303,VALID,257,VALID,0.344922,
2011-11-14, 00:49:05,VALID,918.519,VALID,0,VALID,97.1223,VALID,0,VALID,20.1498,VALID,257,VALID,0.591406,
2011-11-14, 00:50:05,VALID,918.487,VALID,0,VALID,97.1604,VALID,0,VALID,20.1693,VALID,257,VALID,0.135937,
2011-11-14, 00:51:05,VALID,918.47,VALID,0,VALID,97.1376,VALID,0,VALID,20.1288,VALID,257,VALID,0.384766,
2011-11-14, 00:52:05,VALID,918.467,VALID,0,VALID,97.1452,VALID,0,VALID,20.1498,VALID,257,VALID,0.502344,
2011-11-14, 00:53:05,VALID,918.438,VALID,0,VALID,97.2062,VALID,0,VALID,20.2083,VALID,257,VALID,0.207031,
2011-11-14, 00:54:05,VALID,918.427,VALID,0,VALID,97.1681,VALID,0,VALID,20.1888,VALID,257,VALID,0.428906,
2011-11-14, 00:55:05,VALID,918.4,VALID,0,VALID,97.1452,VALID,0,VALID,20.1693,VALID,257,VALID,0.939062,
2011-11-14, 00:56:05,VALID,918.421,VALID,0,VALID,97.1528,VALID,0,VALID,20.1888,VALID,257,VALID,0.597266,
2011-11-14, 00:57:05,VALID,918.424,VALID,0,VALID,97.1604,VALID,0,VALID,20.1888,VALID,257,VALID,0.188672,
2011-11-14, 00:58:05,VALID,918.402,VALID,0,VALID,97.1452,VALID,0,VALID,20.1693,VALID,256,VALID,0.675391,
2011-11-14, 00:59:05,VALID,918.388,VALID,0,VALID,97.1604,VALID,0,VALID,20.1693,VALID,257,VALID,0.307422,
2011-11-14, 01:00:05,VALID,918.393,VALID,0,VALID,97.1376,VALID,0,VALID,20.1693,VALID,257,VALID,0.511328,
2011-11-14, 01:01:05,VALID,918.395,VALID,0,VALID,97.1604,VALID,0,VALID,20.1903,VALID,257,VALID,0.278516,
2011-11-14, 01:02:05,VALID,918.382,VALID,0,VALID,97.1376,VALID,0,VALID,20.1888,VALID,257,VALID,0.00625,
2011-11-14, 01:03:05,VALID,918.396,VALID,0,VALID,97.1528,VALID,0,VALID,20.1888,VALID,257,VALID,0,
2011-11-14, 01:04:05,VALID,918.346,VALID,0,VALID,97.1376,VALID,0,VALID,20.1888,VALID,257,VALID,0.230469,
2011-11-14, 01:05:05,VALID,918.344,VALID,0,VALID,97.1452,VALID,0,VALID,20.1888,VALID,257,VALID,0.0773437,
2011-11-14, 01:06:05,VALID,918.295,VALID,0,VALID,97.1604,VALID,0,VALID,20.2083,VALID,257,VALID,0,
2011-11-14, 01:07:05,VALID,918.314,VALID,0,VALID,97.1299,VALID,0,VALID,20.2083,VALID,257,VALID,0.0855469,
2011-11-14, 01:08:05,VALID,918.302,VALID,0,VALID,97.1299,VALID,0,VALID,20.2083,VALID,257,VALID,0.237109,
2011-11-14, 01:09:05,VALID,918.244,VALID,0,VALID,97.1299,VALID,0,VALID,20.1888,VALID,257,VALID,0,
2011-11-14, 01:10:05,VALID,918.253,VALID,0,VALID,97.1223,VALID,0,VALID,20.1888,VALID,257,VALID,0,
2011-11-14, 01:11:05,VALID,918.227,VALID,0,VALID,97.1376,VALID,0,VALID,20.1888,VALID,257,VALID,0,
2011-11-14, 01:12:05,VALID,918.215,VALID,0,VALID,97.1299,VALID,0,VALID,20.2083,VALID,257,VALID,0,
2011-11-14, 01:13:05,VALID,918.229,VALID,0,VALID,97.1223,VALID,0,VALID,20.2083,VALID,256,VALID,0,
2011-11-14, 01:14:05,VALID,918.211,VALID,0,VALID,97.1147,VALID,0,VALID,20.2083,VALID,257,VALID,0,
2011-11-14, 01:15:05,VALID,918.224,VALID,0,VALID,97.0842,VALID,0,VALID,20.2098,VALID,257,VALID,0,
2011-11-14, 01:16:05,VALID,918.23,VALID,0,VALID,97.0766,VALID,0,VALID,20.1888,VALID,257,VALID,0.211719,
2011-11-14, 01:17:05,VALID,918.232,VALID,0,VALID,97.0613,VALID,0,VALID,20.1888,VALID,257,VALID,0,
2011-11-14, 01:18:05,VALID,918.228,VALID,0,VALID,97.0232,VALID,0,VALID,20.1693,VALID,257,VALID,0,
2011-11-14, 01:19:05,VALID,918.203,VALID,0,VALID,97.0003,VALID,0,VALID,20.1513,VALID,257,VALID,0,
2011-11-14, 01:20:05,VALID,918.195,VALID,0,VALID,96.9546,VALID,0,VALID,20.1108,VALID,257,VALID,0,
2011-11-14, 01:21:05,VALID,918.167,VALID,0,VALID,96.9698,VALID,0,VALID,20.0913,VALID,257,VALID,0,
2011-11-14, 01:22:04,VALID,918.16,VALID,0,VALID,96.9394,VALID,0,VALID,20.0718,VALID,257,VALID,0.160547,
2011-11-14, 01:23:04,VALID,918.144,VALID,0,VALID,97.0003,VALID,0,VALID,20.0718,VALID,257,VALID,0.416406,
2011-11-14, 01:24:04,VALID,918.114,VALID,0,VALID,97.0156,VALID,0,VALID,20.0718,VALID,257,VALID,0.0339844,
2011-11-14, 01:25:04,VALID,918.108,VALID,0,VALID,96.9927,VALID,0,VALID,20.0523,VALID,257,VALID,0.149609,
2011-11-14, 01:26:04,VALID,918.081,VALID,0,VALID,97.0232,VALID,0,VALID,20.0733,VALID,257,VALID,0.341406,
2011-11-14, 01:27:04,VALID,918.105,VALID,0,VALID,97.008,VALID,0,VALID,20.0523,VALID,257,VALID,0.424219,
2011-11-14, 01:28:04,VALID,918.065,VALID,0,VALID,96.947,VALID,0,VALID,20.0133,VALID,257,VALID,0.710938,
2011-11-14, 01:29:04,VALID,918.077,VALID,0,VALID,96.947,VALID,0,VALID,19.9938,VALID,257,VALID,0.791797,
2011-11-14, 01:30:04,VALID,918.084,VALID,0,VALID,97.008,VALID,0,VALID,19.9743,VALID,256,VALID,0.952734,
2011-11-14, 01:31:04,VALID,918.069,VALID,0,VALID,97.0232,VALID,0.107441,VALID,19.9743,VALID,257,VALID,0.707031,
2011-11-14, 01:32:04,VALID,918.063,VALID,0,VALID,97.0461,VALID,0,VALID,19.9353,VALID,257,VALID,0.54375,
2011-11-14, 01:33:04,VALID,918.067,VALID,0,VALID,97.0461,VALID,0,VALID,19.9548,VALID,256,VALID,0.537109,
2011-11-14, 01:34:04,VALID,918.029,VALID,0,VALID,97.0156,VALID,0,VALID,19.9158,VALID,257,VALID,0.585547,
2011-11-14, 01:35:04,VALID,918.033,VALID,0,VALID,97.0766,VALID,0,VALID,19.8963,VALID,257,VALID,0.550391,
2011-11-14, 01:36:04,VALID,918.009,VALID,0,VALID,97.0842,VALID,0,VALID,19.8948,VALID,257,VALID,0.526563,
2011-11-14, 01:37:04,VALID,917.985,VALID,0,VALID,97.0918,VALID,0,VALID,19.8963,VALID,257,VALID,0.338672,
2011-11-14, 01:38:04,VALID,917.99,VALID,0.2,VALID,97.1071,VALID,0,VALID,19.9173,VALID,256,VALID,0.292969,
2011-11-14, 01:39:04,VALID,917.976,VALID,0,VALID,97.1147,VALID,0,VALID,19.8768,VALID,257,VALID,0,
2011-11-14, 01:40:04,VALID,917.962,VALID,0,VALID,97.1223,VALID,0,VALID,19.8963,VALID,256,VALID,0.185156,
2011-11-14, 01:41:04,VALID,917.917,VALID,0,VALID,97.1528,VALID,0.107441,VALID,19.9173,VALID,256,VALID,0.321875,
2011-11-14, 01:42:04,VALID,917.919,VALID,0,VALID,97.1528,VALID,0,VALID,19.9173,VALID,256,VALID,0.336328,
2011-11-14, 01:43:04,VALID,917.892,VALID,0,VALID,97.1299,VALID,0,VALID,19.8963,VALID,257,VALID,0.624219,
2011-11-14, 01:44:04,VALID,917.875,VALID,0,VALID,97.1452,VALID,0,VALID,19.8963,VALID,257,VALID,0.552344,
2011-11-14, 01:45:04,VALID,917.875,VALID,0,VALID,97.1681,VALID,0,VALID,19.8753,VALID,257,VALID,0.391797,
2011-11-14, 01:46:04,VALID,917.867,VALID,0,VALID,97.1833,VALID,0,VALID,19.8963,VALID,256,VALID,0.399609,
2011-11-14, 01:47:04,VALID,917.858,VALID,0,VALID,97.1681,VALID,0,VALID,19.9158,VALID,257,VALID,0.324609,
2011-11-14, 01:48:04,VALID,917.854,VALID,0,VALID,97.1757,VALID,0,VALID,19.9158,VALID,257,VALID,0.315625,
2011-11-14, 01:49:04,VALID,917.868,VALID,0,VALID,97.229,VALID,0,VALID,19.9548,VALID,256,VALID,0.409375,
2011-11-14, 01:50:04,VALID,917.846,VALID,0,VALID,97.2062,VALID,0,VALID,19.9548,VALID,256,VALID,0.455469,
2011-11-14, 01:51:04,VALID,917.844,VALID,0,VALID,97.1604,VALID,0,VALID,19.9353,VALID,257,VALID,0.309766,
2011-11-14, 01:52:04,VALID,917.833,VALID,0,VALID,97.1299,VALID,0,VALID,19.8963,VALID,257,VALID,0.374219,
2011-11-14, 01:53:04,VALID,917.822,VALID,0,VALID,97.1986,VALID,0,VALID,19.9353,VALID,257,VALID,0.355078,
2011-11-14, 01:54:04,VALID,917.801,VALID,0,VALID,97.1452,VALID,0,VALID,19.9353,VALID,257,VALID,0.366016,
2011-11-14, 01:55:04,VALID,917.8,VALID,0,VALID,97.1376,VALID,0,VALID,19.8963,VALID,257,VALID,0.344922,
2011-11-14, 01:56:04,VALID,917.817,VALID,0,VALID,97.1604,VALID,0,VALID,19.8963,VALID,257,VALID,0.385156,
2011-11-14, 01:57:04,VALID,917.792,VALID,0,VALID,97.1223,VALID,0,VALID,19.8588,VALID,257,VALID,0.583594,
2011-11-14, 01:58:04,VALID,917.782,VALID,0,VALID,97.1299,VALID,0,VALID,19.8783,VALID,257,VALID,0.61875,
2011-11-14, 01:59:04,VALID,917.776,VALID,0,VALID,97.1147,VALID,0,VALID,19.8393,VALID,257,VALID,0.579687,
2011-11-14, 02:00:04,VALID,917.758,VALID,0,VALID,97.1604,VALID,0,VALID,19.8408,VALID,257,VALID,0.686328,
2011-11-14, 02:01:04,VALID,917.733,VALID,0,VALID,97.1757,VALID,0,VALID,19.8003,VALID,257,VALID,0.583594,
2011-11-14, 02:02:04,VALID,917.689,VALID,0,VALID,97.2138,VALID,0,VALID,19.8213,VALID,257,VALID,0.272656,
2011-11-14, 02:03:04,VALID,917.729,VALID,0,VALID,97.2443,VALID,0,VALID,19.8213,VALID,257,VALID,0.379687,
2011-11-14, 02:04:04,VALID,917.711,VALID,0,VALID,97.2138,VALID,0,VALID,19.8213,VALID,257,VALID,0.410937,
2011-11-14, 02:05:04,VALID,917.659,VALID,0,VALID,97.2138,VALID,0,VALID,19.7808,VALID,257,VALID,0.469141,
2011-11-14, 02:06:04,VALID,917.655,VALID,0,VALID,97.2443,VALID,0,VALID,19.7808,VALID,257,VALID,0.371484,
2011-11-14, 02:07:04,VALID,917.61,VALID,0,VALID,97.229,VALID,0,VALID,19.8003,VALID,257,VALID,0.591797,
2011-11-14, 02:08:04,VALID,917.593,VALID,0,VALID,97.2519,VALID,0,VALID,19.7808,VALID,256,VALID,0.368359,
2011-11-14, 02:09:04,VALID,917.556,VALID,0,VALID,97.2367,VALID,0,VALID,19.7808,VALID,257,VALID,0.299609,
2011-11-14, 02:10:04,VALID,917.551,VALID,0,VALID,97.2367,VALID,0,VALID,19.7613,VALID,257,VALID,0.565234,
2011-11-14, 02:11:04,VALID,917.54,VALID,0,VALID,97.229,VALID,0,VALID,19.7613,VALID,257,VALID,0.557031,
2011-11-14, 02:12:04,VALID,917.532,VALID,0,VALID,97.2367,VALID,0,VALID,19.7613,VALID,256,VALID,0.566797,
2011-11-14, 02:13:04,VALID,917.524,VALID,0,VALID,97.2367,VALID,0,VALID,19.7403,VALID,257,VALID,0.754297,
2011-11-14, 02:14:04,VALID,917.493,VALID,0,VALID,97.2595,VALID,0,VALID,19.7598,VALID,257,VALID,0.621094,
2011-11-14, 02:15:04,VALID,917.474,VALID,0,VALID,97.2367,VALID,0,VALID,19.7403,VALID,257,VALID,0.635547,
2011-11-14, 02:16:04,VALID,917.471,VALID,0,VALID,97.2519,VALID,0,VALID,19.7403,VALID,257,VALID,0.560156,
2011-11-14, 02:17:04,VALID,917.463,VALID,0,VALID,97.2443,VALID,0.107441,VALID,19.7403,VALID,257,VALID,0.626953,
2011-11-14, 02:18:04,VALID,917.465,VALID,0,VALID,97.2748,VALID,0,VALID,19.7403,VALID,257,VALID,0.385938,
2011-11-14, 02:19:04,VALID,917.456,VALID,0,VALID,97.3129,VALID,0,VALID,19.7598,VALID,257,VALID,0.223047,
2011-11-14, 02:20:04,VALID,917.493,VALID,0,VALID,97.3053,VALID,0,VALID,19.7793,VALID,257,VALID,0.417969,
2011-11-14, 02:21:04,VALID,917.489,VALID,0,VALID,97.2977,VALID,0,VALID,19.7613,VALID,257,VALID,0.328516,
2011-11-14, 02:22:04,VALID,917.475,VALID,0,VALID,97.2977,VALID,0,VALID,19.7403,VALID,256,VALID,0.239844,
2011-11-14, 02:23:04,VALID,917.465,VALID,0,VALID,97.3129,VALID,0,VALID,19.7208,VALID,257,VALID,0.369922,
2011-11-14, 02:24:04,VALID,917.459,VALID,0,VALID,97.2977,VALID,0.107441,VALID,19.7208,VALID,257,VALID,0.372266,
2011-11-14, 02:25:04,VALID,917.442,VALID,0,VALID,97.3281,VALID,0,VALID,19.7403,VALID,257,VALID,0,
2011-11-14, 02:26:04,VALID,917.452,VALID,0,VALID,97.3434,VALID,0,VALID,19.7403,VALID,257,VALID,0.065625,
2011-11-14, 02:27:04,VALID,917.428,VALID,0,VALID,97.351,VALID,0,VALID,19.7598,VALID,257,VALID,0.0683594,
2011-11-14, 02:28:04,VALID,917.425,VALID,0,VALID,97.351,VALID,0,VALID,19.7793,VALID,257,VALID,0,
2011-11-14, 02:29:04,VALID,917.405,VALID,0,VALID,97.3281,VALID,0,VALID,19.7808,VALID,257,VALID,0,
2011-11-14, 02:30:04,VALID,917.404,VALID,0,VALID,97.3586,VALID,0.107441,VALID,19.7793,VALID,257,VALID,0,
2011-11-14, 02:31:04,VALID,917.41,VALID,0,VALID,97.3815,VALID,0.107441,VALID,19.7988,VALID,257,VALID,0,
2011-11-14, 02:32:04,VALID,917.395,VALID,0,VALID,97.3739,VALID,0,VALID,19.8183,VALID,257,VALID,0,
2011-11-14, 02:33:04,VALID,917.393,VALID,0,VALID,97.3434,VALID,0,VALID,19.7988,VALID,257,VALID,0,
2011-11-14, 02:34:04,VALID,917.391,VALID,0,VALID,97.3281,VALID,0,VALID,19.7793,VALID,257,VALID,0.0496094,
2011-11-14, 02:35:04,VALID,917.433,VALID,0,VALID,97.29,VALID,0,VALID,19.7598,VALID,257,VALID,0.19375,
2011-11-14, 02:36:04,VALID,917.453,VALID,0,VALID,97.3281,VALID,0,VALID,19.7403,VALID,257,VALID,0,
2011-11-14, 02:37:04,VALID,917.45,VALID,0,VALID,97.3205,VALID,0,VALID,19.7418,VALID,257,VALID,0,
2011-11-14, 02:38:04,VALID,917.46,VALID,0,VALID,97.29,VALID,0,VALID,19.7208,VALID,257,VALID,0,
2011-11-14, 02:39:04,VALID,917.473,VALID,0,VALID,97.3281,VALID,0,VALID,19.7013,VALID,257,VALID,0.367969,
2011-11-14, 02:40:04,VALID,917.479,VALID,0,VALID,97.3129,VALID,0,VALID,19.6818,VALID,257,VALID,0.117578,
2011-11-14, 02:41:04,VALID,917.477,VALID,0,VALID,97.3281,VALID,0,VALID,19.6818,VALID,257,VALID,0.0441406,
2011-11-14, 02:42:04,VALID,917.469,VALID,0,VALID,97.3281,VALID,0,VALID,19.7028,VALID,257,VALID,0,
2011-11-14, 02:43:04,VALID,917.444,VALID,0,VALID,97.3205,VALID,0,VALID,19.6833,VALID,257,VALID,0,
2011-11-14, 02:44:04,VALID,917.424,VALID,0,VALID,97.351,VALID,0,VALID,19.6623,VALID,257,VALID,0,
2011-11-14, 02:45:04,VALID,917.453,VALID,0,VALID,97.351,VALID,0,VALID,19.6623,VALID,257,VALID,0,
2011-11-14, 02:46:04,VALID,917.418,VALID,0,VALID,97.3586,VALID,0,VALID,19.6833,VALID,257,VALID,0,
2011-11-14, 02:47:04,VALID,917.416,VALID,0,VALID,97.3739,VALID,0,VALID,19.6818,VALID,257,VALID,0,
2011-11-14, 02:48:04,VALID,917.428,VALID,0,VALID,97.4273,VALID,0,VALID,19.7208,VALID,257,VALID,0,
2011-11-14, 02:49:04,VALID,917.413,VALID,0,VALID,97.4273,VALID,0,VALID,19.7598,VALID,257,VALID,0,
2011-11-14, 02:50:04,VALID,917.403,VALID,0,VALID,97.4273,VALID,0,VALID,19.7808,VALID,257,VALID,0,
2011-11-14, 02:51:04,VALID,917.419,VALID,0,VALID,97.4044,VALID,0,VALID,19.7808,VALID,257,VALID,0,
2011-11-14, 02:52:04,VALID,917.431,VALID,0,VALID,97.3815,VALID,0,VALID,19.7418,VALID,257,VALID,0,
2011-11-14, 02:53:04,VALID,917.42,VALID,0,VALID,97.3891,VALID,0,VALID,19.7208,VALID,257,VALID,0,
2011-11-14, 02:54:04,VALID,917.43,VALID,0,VALID,97.3815,VALID,0.107441,VALID,19.7223,VALID,257,VALID,0,
2011-11-14, 02:55:04,VALID,917.411,VALID,0,VALID,97.3129,VALID,0,VALID,19.6833,VALID,257,VALID,0,
2011-11-14, 02:56:04,VALID,917.401,VALID,0,VALID,97.3129,VALID,0,VALID,19.6428,VALID,257,VALID,0,
2011-11-14, 02:57:04,VALID,917.367,VALID,0,VALID,97.3586,VALID,0,VALID,19.6428,VALID,257,VALID,0,
2011-11-14, 02:58:04,VALID,917.377,VALID,0,VALID,97.3663,VALID,0.107441,VALID,19.6428,VALID,257,VALID,0.0605469,
2011-11-14, 02:59:04,VALID,917.339,VALID,0,VALID,97.3815,VALID,0,VALID,19.6833,VALID,257,VALID,0,
2011-11-14, 03:00:04,VALID,917.345,VALID,0,VALID,97.3968,VALID,0,VALID,19.6818,VALID,257,VALID,0.276563,
2011-11-14, 03:01:04,VALID,917.282,VALID,0,VALID,97.4196,VALID,0,VALID,19.6818,VALID,257,VALID,0,
2011-11-14, 03:02:04,VALID,917.294,VALID,0,VALID,97.3968,VALID,0.107441,VALID,19.7013,VALID,257,VALID,0,
2011-11-14, 03:03:04,VALID,917.267,VALID,0,VALID,97.412,VALID,0,VALID,19.7013,VALID,257,VALID,0,
2011-11-14, 03:04:04,VALID,917.287,VALID,0,VALID,97.412,VALID,0,VALID,19.7223,VALID,257,VALID,0,
2011-11-14, 03:05:04,VALID,917.237,VALID,0,VALID,97.3739,VALID,0.107441,VALID,19.6818,VALID,257,VALID,0,
2011-11-14, 03:06:04,VALID,917.272,VALID,0,VALID,97.3739,VALID,0.107441,VALID,19.6623,VALID,257,VALID,0.065625,
2011-11-14, 03:07:04,VALID,917.268,VALID,0,VALID,97.4196,VALID,0,VALID,19.6623,VALID,257,VALID,0,
2011-11-14, 03:08:04,VALID,917.238,VALID,0,VALID,97.4196,VALID,0,VALID,19.6623,VALID,257,VALID,0,
2011-11-14, 03:09:04,VALID,917.244,VALID,0,VALID,97.4196,VALID,0,VALID,19.6623,VALID,257,VALID,0,
2011-11-14, 03:10:04,VALID,917.237,VALID,0,VALID,97.412,VALID,0,VALID,19.6428,VALID,257,VALID,0.101172,
2011-11-14, 03:11:04,VALID,917.267,VALID,0,VALID,97.3968,VALID,0,VALID,19.6638,VALID,257,VALID,0.0328125,
2011-11-14, 03:12:04,VALID,917.24,VALID,0,VALID,97.3891,VALID,0,VALID,19.6233,VALID,257,VALID,0.0519531,
2011-11-14, 03:13:04,VALID,917.247,VALID,0,VALID,97.4044,VALID,0,VALID,19.6443,VALID,257,VALID,0,
2011-11-14, 03:14:04,VALID,917.23,VALID,0,VALID,97.3891,VALID,0,VALID,19.6038,VALID,257,VALID,0.356641,
2011-11-14, 03:15:04,VALID,917.231,VALID,0,VALID,97.3891,VALID,0,VALID,19.6038,VALID,257,VALID,0.425,
2011-11-14, 03:16:04,VALID,917.196,VALID,0,VALID,97.4044,VALID,0,VALID,19.6038,VALID,257,VALID,0.33125,
2011-11-14, 03:17:04,VALID,917.186,VALID,0,VALID,97.3815,VALID,0,VALID,19.6038,VALID,257,VALID,0.451172,
2011-11-14, 03:18:04,VALID,917.157,VALID,0,VALID,97.3739,VALID,0.107441,VALID,19.5843,VALID,257,VALID,0.243359,
2011-11-14, 03:19:04,VALID,917.146,VALID,0,VALID,97.3663,VALID,0,VALID,19.5648,VALID,257,VALID,0.471094,
2011-11-14, 03:20:04,VALID,917.163,VALID,0,VALID,97.3815,VALID,0,VALID,19.5453,VALID,257,VALID,0.366406,
2011-11-14, 03:21:04,VALID,917.156,VALID,0,VALID,97.3739,VALID,0,VALID,19.5663,VALID,257,VALID,0.212891,
2011-11-14, 03:22:04,VALID,917.137,VALID,0,VALID,97.3739,VALID,0,VALID,19.5468,VALID,257,VALID,0.550781,
2011-11-14, 03:23:04,VALID,917.147,VALID,0,VALID,97.3968,VALID,0,VALID,19.5063,VALID,257,VALID,0.535937,
2011-11-14, 03:24:04,VALID,917.158,VALID,0,VALID,97.3586,VALID,0,VALID,19.4868,VALID,257,VALID,0.355469,
2011-11-14, 03:25:04,VALID,917.156,VALID,0,VALID,97.3891,VALID,0,VALID,19.4673,VALID,257,VALID,0.414453,
2011-11-14, 03:26:04,VALID,917.179,VALID,0,VALID,97.3891,VALID,0.107441,VALID,19.4673,VALID,257,VALID,0.838281,
2011-11-14, 03:27:04,VALID,917.202,VALID,0,VALID,97.412,VALID,0,VALID,19.4883,VALID,257,VALID,0.929688,
2011-11-14, 03:28:04,VALID,917.207,VALID,0,VALID,97.4273,VALID,0,VALID,19.4688,VALID,257,VALID,0.701172,
2011-11-14, 03:29:04,VALID,917.197,VALID,0,VALID,97.4196,VALID,0,VALID,19.4688,VALID,257,VALID,0.754687,
2011-11-14, 03:30:04,VALID,917.171,VALID,0,VALID,97.4349,VALID,0.107441,VALID,19.4283,VALID,257,VALID,0.733984,
2011-11-14, 03:31:04,VALID,917.174,VALID,0,VALID,97.412,VALID,0,VALID,19.4493,VALID,257,VALID,0.946094,
2011-11-14, 03:32:04,VALID,917.153,VALID,0,VALID,97.4273,VALID,0,VALID,19.4478,VALID,257,VALID,0.677344,
2011-11-14, 03:33:04,VALID,917.164,VALID,0,VALID,97.4273,VALID,0,VALID,19.4493,VALID,257,VALID,0.576563,
2011-11-14, 03:34:04,VALID,917.142,VALID,0,VALID,97.4273,VALID,0,VALID,19.4298,VALID,257,VALID,0.694531,
2011-11-14, 03:35:04,VALID,917.15,VALID,0,VALID,97.4273,VALID,0,VALID,19.4298,VALID,257,VALID,0.849609,
2011-11-14, 03:36:04,VALID,917.169,VALID,0,VALID,97.4349,VALID,0,VALID,19.4298,VALID,257,VALID,0.935938,
2011-11-14, 03:37:04,VALID,917.173,VALID,0,VALID,97.4425,VALID,0,VALID,19.3908,VALID,50,VALID,0.705078,
2011-11-14, 03:38:04,VALID,917.18,VALID,0,VALID,97.4425,VALID,0,VALID,19.3908,VALID,50,VALID,0.813281,
2011-11-14, 03:39:04,VALID,917.18,VALID,0,VALID,97.4425,VALID,0,VALID,19.3503,VALID,50,VALID,1.13711,
2011-11-14, 03:40:04,VALID,917.162,VALID,0,VALID,97.473,VALID,0,VALID,19.3698,VALID,50,VALID,0.669141,
2011-11-14, 03:41:04,VALID,917.189,VALID,0,VALID,97.473,VALID,0,VALID,19.3503,VALID,50,VALID,1.04688,
2011-11-14, 03:42:04,VALID,917.19,VALID,0,VALID,97.5035,VALID,0,VALID,19.3698,VALID,50,VALID,1.09023,
2011-11-14, 03:43:04,VALID,917.153,VALID,0,VALID,97.5035,VALID,0.107441,VALID,19.3698,VALID,50,VALID,0.680469,
2011-11-14, 03:44:04,VALID,917.178,VALID,0,VALID,97.5264,VALID,0,VALID,19.3893,VALID,50,VALID,0.564453,
2011-11-14, 03:45:04,VALID,917.182,VALID,0,VALID,97.5264,VALID,0,VALID,19.3698,VALID,50,VALID,0.527734,